Погода в Сан-Диего

США     32°42′56″N   117°09′16″W
темп.,
°C
ветер,
м/с
пор.,
м/с
влажн.,
%
обл.,
%
осадки,
мм/ч
давл.,
гПа
погр.,
м
16 октября, сб
сб1623:00+22св12360 0.0 101616
02:00+21всв12300 0.0 101511
05:00+20св22270 0.0 101511
08:00+20всв22280 0.0 101515
11:00+24с11280 0.0 1015160
14:00+24зсз43310 0.0 1013351
17:00+22сз34440 0.0 1013229
20:00+21з225199 0.0 101446
17 октября, вс
вс1723:00+20зсз22611 0.0 101558
02:00+19сз22675 0.0 101555
05:00+19зюз006466 0.0 101411
08:00+19юз116366 0.0 101534
11:00+20зюз22540 0.0 1016336
14:00+20з43550 0.0 1015474
17:00+19з33580 0.0 1014425
20:00+18зсз22650 0.0 1015340
18 октября, пн
пн1823:00+18зсз33700 0.0 1016432
02:00+17з11742 0.0 1015500
05:00+17зсз227811 0.1 1015483
08:00+17з337714 0.2 1015507
11:00+18зюз336897 0.4 1016807
14:00+18зсз556597 0.1 1015976
17:00+17зсз557294 0.1 1014793
20:00+16сз44680 0.0 1015709
19 октября, вт
вт1923:00+16зсз33621 0.0 1016775
02:00+16зсз11611 0.0 1015737
05:00+15сз11630 0.0 1015515
08:00+15ссз11630 0.0 1016581
11:00+17зсз22590 0.0 1017721
14:00+17з436439 0.0 1016686
17:00+17з3365100 0.0 1015571
20:00+16з226999 0.0 1017495
20 октября, ср
ср2023:00+16зсз1170100 0.0 1017430
02:00+16зсз1172100 0.0 1017319
05:00+16с2272100 0.0 1017265
08:00+16ссз22715 0.0 1018288
11:00+18сз33630 0.0 1019475
14:00+19сз446453 0.0 1018486
17:00+18сз446492 0.0 1017385
20:00+17сз457095 0.0 1018339